Вернуться в каталог

STARLINK-31113

АктивенСвязьVLEO
NORAD 58668·PAYLOAD·🇺🇸 United States

Запущен Dec 29, 2023 с Cape Canaveral Space Force Station

Loading…

Ближайшие Пролёты (ближайшие 24 часа)

TLE

СвежийSource: CelesTrak SupGP

Эпоха: Sep 14, 2026, 21:21 UTC

1 58668C 23211B   26257.89006944 -.00004441  00000+0 -16089-3 0  2572
2 58668  43.0021  96.4782 0001452 272.7903  94.1530 15.27573043    13

Отслеживайте STARLINK-31113 в реальном времени с AllMySat

Download on the App Store